User: anonymous   Login
Location: Unspecified
(0.0000°N, 0.0000°E)
Time: 11:02:23
(UTC+00:00)
Language:

PCSat - Orbit

View from above orbital plane
View from above orbital plane
View from above satellite
View from above satellite

Ground track
Ground track

The orbit data is extracted from the following two-line orbital elements,

1 26931U 01043C   17269.20912007  .00000018  00000-0  38764-4 0  9996
2 26931  67.0516 190.5423 0006217 257.2147 102.8260 14.30475005834795
Epoch (UTC): 26 September 2017 05:01:07
Eccentricity: 0.0006217
inclination: 67.0516°
perigee height: 785 km
apogee height: 794 km
right ascension of ascending node: 190.5423°
argument of perigee: 257.2147°
revolutions per day: 14.30475005
mean anomaly at epoch: 102.8260°
orbit number at epoch: 83479

The dashed part of the orbit path shows where the satellite is in the earth's shadow,  

DLR